Location: Domicella
(40.8833°N, 14.5833°E)
Time: 21:15:43
(UTC+00:00)

RESURS DK-1 - Pass Details

Date: 15 May 2026
Orbit: 522 x 531 km, 69.9° (Epoch: 7 June)

Event Time Altitude Azimuth Distance (km) Brightness Sun altitude
Rises 22:16:23 0° 335° (NNW) 2,679 7.0 -29.3°
Reaches altitude 10° 22:18:34 10° 336° (NNW) 1,786 5.8 -29.4°
Enters shadow 22:20:37 29° 339° (NNW) 993 4.1 -29.4°
